Fosston, MN

11:58 AM CST on February 28, 2017 (GMT -0600)
Fosston Municipal

Weather History for KFSE - November, 2011

Change the Weather History Date:

Monday, November 14, 2011

  Actual Average Record
Temperature  
Mean Temperature 33 °F -  
Max Temperature 42 °F 36 °F 61 °F (1981)
Min Temperature 24 °F 19 °F -7 °F (2014)
Degree Days  
Heating Degree Days 32    
Moisture  
Dew Point 26 °F    
Average Humidity 79    
Maximum Humidity 100    
Minimum Humidity 53    
Precipitation  
Precipitation 0.00 in - - ()
Sea Level Pressure  
Sea Level Pressure 29.33 in    
Wind  
Wind Speed 10 mph (SSW)    
Max Wind Speed 15 mph    
Max Gust Speed 20 mph    
Visibility 10 miles    
Events      
Averages and records for this station are not official NWS values.
T = Trace of Precipitation, MM = Missing Value Source: NWS Daily Summary

Daily Weather History Graph

Daily Weather History Graph

Search for Another Location

Airport or City:

Trip Planner

Search our weather history database for the weather conditions in past years. The results will help you decide how hot, cold, wet, or windy it might be!

Date:

Astronomy

Nov. 14, 2011 Rise Set
Actual Time 7:26 AM CST 4:48 PM CST
Civil Twilight 6:52 AM CST 5:21 PM CST
Nautical Twilight 6:15 AM CST 5:58 PM CST
Astronomical Twilight 5:39 AM CST 6:35 PM CST
Moon 7:50 PM CST (11/14) 10:51 AM CST (11/14)
Length of Visible Light 10h 28m
Length of Day
9h 21m
Waning Gibbous, 86% of the Moon is Illuminated
Nov 14
Waning Gibbous
Nov 18
Last Quarter
Nov 25
New
Dec 2
First Quarter
Dec 10
Full

Hourly Weather History & Observations

Time (CST) Temp. Windchill Dew Point Humidity Pressure Visibility Wind Dir Wind Speed Gust Speed Precip Events Conditions
12:15 AM 33.8 °F 24.8 °F 24.8 °F 70% 29.26 in 10.0 mi SSW 12.7 mph - N/A   Mostly Cloudy
12:35 AM 30.2 °F 19.8 °F 24.8 °F 80% 29.26 in 10.0 mi SSW 13.8 mph - N/A   Mostly Cloudy
12:55 AM 30.2 °F 21.9 °F 24.8 °F 80% 29.26 in 10.0 mi SSW 9.2 mph - N/A   Overcast
1:15 AM 32.0 °F 23.6 °F 26.6 °F 80% 29.26 in 10.0 mi SSW 10.4 mph - N/A   Overcast
1:35 AM 30.2 °F 21.9 °F 26.6 °F 86% 29.28 in 10.0 mi SSW 9.2 mph - N/A   Overcast
1:55 AM 30.2 °F 22.6 °F 24.8 °F 80% 29.27 in 10.0 mi SSW 8.1 mph - N/A   Overcast
2:15 AM 30.2 °F 22.6 °F 24.8 °F 80% 29.27 in 10.0 mi South 8.1 mph - N/A   Overcast
2:35 AM 28.4 °F - 23.0 °F 80% 29.26 in 10.0 mi Calm Calm - N/A   Mostly Cloudy
2:55 AM 28.4 °F 19.1 °F 23.0 °F 80% 29.27 in 10.0 mi SSW 10.4 mph - N/A   Clear
3:15 AM 28.4 °F 19.7 °F 23.0 °F 80% 29.27 in 10.0 mi SSW 9.2 mph - N/A   Scattered Clouds
3:35 AM 28.4 °F 21.2 °F 23.0 °F 80% 29.26 in 10.0 mi SSW 6.9 mph - N/A   Scattered Clouds
3:55 AM 26.6 °F 16.8 °F 23.0 °F 86% 29.26 in 10.0 mi South 10.4 mph - N/A   Scattered Clouds
4:15 AM 26.6 °F 16.8 °F 23.0 °F 86% 29.27 in 10.0 mi SSW 10.4 mph - N/A   Clear
4:35 AM 26.6 °F 17.5 °F 23.0 °F 86% 29.27 in 10.0 mi SSW 9.2 mph - N/A   Clear
4:55 AM 26.6 °F 18.2 °F 23.0 °F 86% 29.27 in 10.0 mi SSW 8.1 mph - N/A   Clear
5:15 AM 26.6 °F 19.1 °F 21.2 °F 80% 29.27 in 10.0 mi SSW 6.9 mph - N/A   Clear
5:35 AM 24.8 °F 16.1 °F 21.2 °F 86% 29.28 in 10.0 mi SSW 8.1 mph - N/A   Clear
6:16 AM 24.8 °F 16.1 °F 21.2 °F 86% 29.28 in 10.0 mi South 8.1 mph - N/A   Clear
6:35 AM 24.8 °F 16.1 °F 21.2 °F 86% 29.28 in 10.0 mi South 8.1 mph - N/A   Clear
6:55 AM 24.8 °F 15.3 °F 21.2 °F 86% 29.28 in 10.0 mi South 9.2 mph - N/A   Clear
7:35 AM 24.8 °F 16.1 °F 21.2 °F 86% 29.29 in 10.0 mi SSW 8.1 mph - N/A   Clear
7:55 AM 24.8 °F 16.9 °F 21.2 °F 86% 29.30 in 10.0 mi SSW 6.9 mph - N/A   Clear
8:15 AM 26.6 °F 19.1 °F 23.0 °F 86% 29.30 in 10.0 mi SSW 6.9 mph - N/A   Clear
8:35 AM 28.4 °F 19.7 °F 24.8 °F 86% 29.30 in 10.0 mi SSW 9.2 mph - N/A   Clear
8:55 AM 28.4 °F 21.2 °F 24.8 °F 86% 29.31 in 10.0 mi SW 6.9 mph - N/A   Clear
9:15 AM 28.4 °F 21.2 °F 26.6 °F 93% 29.32 in 10.0 mi SSW 6.9 mph - N/A   Scattered Clouds
9:35 AM 32.0 °F 24.8 °F 28.4 °F 87% 29.31 in 10.0 mi SW 8.1 mph - N/A   Mostly Cloudy
9:55 AM 33.8 °F 27.0 °F 26.6 °F 75% 29.31 in 10.0 mi SW 8.1 mph - N/A   Scattered Clouds
10:34 AM 33.8 °F 25.3 °F 28.4 °F 81% 29.32 in 10.0 mi SW 11.5 mph - N/A   Clear
10:55 AM 37.4 °F 29.3 °F 30.2 °F 75% 29.32 in 10.0 mi SW 12.7 mph - N/A   Clear
11:15 AM 37.4 °F 29.8 °F 28.4 °F 70% 29.32 in 10.0 mi WSW 11.5 mph - N/A   Clear
11:35 AM 39.2 °F 31.6 °F 28.4 °F 65% 29.32 in 10.0 mi SW 12.7 mph 16.1 mph N/A   Clear
11:55 AM 39.2 °F 31.2 °F 28.4 °F 65% 29.32 in 10.0 mi WSW 13.8 mph - N/A   Clear
12:15 PM 39.2 °F 32.5 °F 28.4 °F 65% 29.32 in 10.0 mi SW 10.4 mph - N/A   Clear
12:35 PM 42.8 °F 36.6 °F 28.4 °F 57% 29.32 in 10.0 mi SW 11.5 mph - N/A   Clear
12:55 PM 42.8 °F 35.4 °F 26.6 °F 53% 29.32 in 10.0 mi WSW 15.0 mph 19.6 mph N/A   Clear
1:15 PM 42.8 °F 35.8 °F 28.4 °F 57% 29.32 in 10.0 mi SW 13.8 mph - N/A   Clear
1:35 PM 39.2 °F 31.2 °F 28.4 °F 65% 29.32 in 10.0 mi SW 13.8 mph 19.6 mph N/A   Clear
1:55 PM 39.2 °F 31.2 °F 28.4 °F 65% 29.32 in 10.0 mi SW 13.8 mph - N/A   Clear
2:15 PM 39.2 °F 31.6 °F 28.4 °F 65% 29.33 in 10.0 mi SW 12.7 mph 18.4 mph N/A   Clear
2:35 PM 37.4 °F 29.3 °F 26.6 °F 65% 29.34 in 10.0 mi WSW 12.7 mph - N/A   Scattered Clouds
2:55 PM 37.4 °F 29.8 °F 26.6 °F 65% 29.35 in 10.0 mi WSW 11.5 mph - N/A   Clear
3:15 PM 37.4 °F 29.3 °F 26.6 °F 65% 29.36 in 10.0 mi WSW 12.7 mph - N/A   Scattered Clouds
3:35 PM 37.4 °F 30.8 °F 26.6 °F 65% 29.37 in 10.0 mi WSW 9.2 mph - N/A   Mostly Cloudy
3:55 PM 37.4 °F 30.8 °F 26.6 °F 65% 29.37 in 10.0 mi WSW 9.2 mph - N/A   Overcast
4:15 PM 37.4 °F 33.8 °F 26.6 °F 65% 29.38 in 10.0 mi WSW 4.6 mph - N/A   Mostly Cloudy
4:35 PM 39.2 °F 34.2 °F 26.6 °F 61% 29.38 in 10.0 mi WSW 6.9 mph - N/A   Scattered Clouds
4:55 PM 35.6 °F 29.2 °F 26.6 °F 70% 29.40 in 10.0 mi SW 8.1 mph - N/A   Clear
5:15 PM 33.8 °F 28.6 °F 26.6 °F 75% 29.40 in 10.0 mi SW 5.8 mph - N/A   Clear
5:35 PM 30.2 °F 23.4 °F 24.8 °F 80% 29.41 in 10.0 mi SSW 6.9 mph - N/A   Clear
5:55 PM 30.2 °F 21.3 °F 24.8 °F 80% 29.42 in 10.0 mi SSW 10.4 mph - N/A   Clear
6:15 PM 30.2 °F 20.2 °F 26.6 °F 86% 29.43 in 10.0 mi SSW 12.7 mph - N/A   Clear
6:35 PM 30.2 °F 19.8 °F 28.4 °F 93% 29.43 in 10.0 mi SSW 13.8 mph - N/A   Clear
6:55 PM 30.2 °F 20.8 °F 28.4 °F 93% 29.43 in 10.0 mi SSW 11.5 mph - N/A   Clear
7:15 PM 30.2 °F 20.8 °F 28.4 °F 93% 29.43 in 10.0 mi South 11.5 mph - N/A   Clear
7:35 PM 28.4 °F 18.0 °F 28.4 °F 100% 29.43 in 10.0 mi South 12.7 mph - N/A   Clear
7:55 PM 28.4 °F 18.5 °F 28.4 °F 100% 29.43 in 10.0 mi South 11.5 mph - N/A   Clear
8:15 PM 28.4 °F 19.7 °F 28.4 °F 100% 29.43 in 10.0 mi South 9.2 mph - N/A   Clear
8:35 PM 28.4 °F 19.7 °F 28.4 °F 100% 29.42 in 10.0 mi South 9.2 mph - N/A   Clear
8:55 PM 28.4 °F 20.4 °F 26.6 °F 93% 29.42 in 10.0 mi South 8.1 mph - N/A   Clear
9:15 PM 30.2 °F 21.3 °F 28.4 °F 93% 29.42 in 10.0 mi South 10.4 mph - N/A   Clear
9:35 PM 30.2 °F 21.9 °F 28.4 °F 93% 29.43 in 10.0 mi SSW 9.2 mph - N/A   Scattered Clouds
9:55 PM 32.0 °F 23.0 °F 28.4 °F 87% 29.43 in 10.0 mi SSW 11.5 mph - N/A   Scattered Clouds
10:16 PM 30.2 °F 20.8 °F 28.4 °F 93% 29.44 in 10.0 mi SSW 11.5 mph - N/A   Mostly Cloudy
10:55 PM 30.2 °F 21.3 °F 28.4 °F 93% 29.45 in 10.0 mi SSW 10.4 mph - N/A   Overcast
11:15 PM 33.8 °F 26.4 °F 28.4 °F 81% 29.46 in 10.0 mi SSW 9.2 mph - N/A   Overcast
11:35 PM 33.8 °F 25.8 °F 30.2 °F 87% 29.46 in 7.0 mi SSW 10.4 mph - N/A Snow Light Snow
11:55 PM 32.0 °F 24.8 °F 28.4 °F 87% 29.46 in 10.0 mi SSW 8.1 mph - N/A   Overcast